User: anonymous   Login
Location: Unspecified
(0.0000°N, 0.0000°E)
Time: 20:54:01
(UTC+00:00)
Language:

UFO F6 - Orbit

View from above orbital plane
View from above orbital plane
View from above satellite
View from above satellite

Ground track
Ground track

The orbit data is extracted from the following two-line orbital elements,

1 23696U 95057A   18124.89957421 0.00000000  00000-0  00000-0 0    06
2 23696   9.3177  27.7696 0007017 205.6730 154.3042  0.98763791    09
Epoch (UTC): 04 May 2018 21:35:23
Eccentricity: 0.0007017
inclination: 9.3177°
perigee height: 36184 km
apogee height: 36244 km
right ascension of ascending node: 27.7696°
argument of perigee: 205.6730°
revolutions per day: 0.98763791
mean anomaly at epoch: 154.3042°
orbit number at epoch: 0

The dashed part of the orbit path shows where the satellite is in the earth's shadow,  

DLR